This is the latest recevied weather packets stored in our database for station/object W0VI. If no packets are shown the sender has not sent any weather packets the latest 1 day(s).
| Time | Temp. | Humidity | Pressure | Rain* | Wind** | Luminosity | Snow |
|---|---|---|---|---|---|---|---|
| 1778005903 | 8.89° C | 41% | 1010.9 hPa | 0 mm | 1.34 m/s, 318° | 290 W/m² | - |
| 1778005598 | 8.33° C | 41% | 1011 hPa | 0 mm | 5.36 m/s, 262° | 494 W/m² | - |
| 1778005296 | 8.89° C | 41% | 1010.9 hPa | 0 mm | 2.24 m/s, 310° | 338 W/m² | - |
| 1778004992 | 9.44° C | 42% | 1011.1 hPa | 0 mm | 1.79 m/s, 299° | 367 W/m² | - |
| 1778004690 | 8.33° C | 41% | 1011.1 hPa | 0 mm | 3.13 m/s, 332° | 345 W/m² | - |
| 1778004385 | 8.33° C | 43% | 1011 hPa | 0 mm | 3.13 m/s, 234° | 306 W/m² | - |
| 1778004083 | 9.44° C | 41% | 1010.9 hPa | 0 mm | 3.58 m/s, 319° | 375 W/m² | - |
| 1778003779 | 9.44° C | 41% | 1010.9 hPa | 0 mm | 3.58 m/s, 345° | 403 W/m² | - |
| 1778003476 | 8.33° C | 42% | 1011 hPa | 0 mm | 3.58 m/s, 269° | 374 W/m² | - |
| 1778003172 | 8.89° C | 41% | 1011.1 hPa | 0 mm | 3.13 m/s, 327° | 304 W/m² | - |
| 1778002868 | 8.89° C | 41% | 1010.8 hPa | 0 mm | 4.92 m/s, 280° | 351 W/m² | - |
| 1778002565 | 8.89° C | 42% | 1010.9 hPa | 0 mm | 2.24 m/s, 327° | 890 W/m² | - |
| 1778002262 | 8.33° C | 42% | 1011.3 hPa | 0 mm | 3.13 m/s, 293° | 434 W/m² | - |
| 1778001960 | 8.33° C | 42% | 1011.2 hPa | 0 mm | 2.68 m/s, 271° | 424 W/m² | - |
| 1778001656 | 8.89° C | 42% | 1011 hPa | 0 mm | 1.34 m/s, 6° | 263 W/m² | - |
| 1778001350 | 8.33° C | 43% | 1011.1 hPa | 0 mm | 1.79 m/s, 333° | 540 W/m² | - |
| 1778001048 | 7.78° C | 45% | 1011.2 hPa | 0 mm | 1.34 m/s, 293° | 897 W/m² | - |
| 1778000745 | 8.33° C | 44% | 1011 hPa | 0 mm | 1.79 m/s, 266° | 505 W/m² | - |
| 1778000442 | 8.89° C | 44% | 1010.9 hPa | 0 mm | 1.34 m/s, 40° | 692 W/m² | - |
| 1778000137 | 7.78° C | 44% | 1010.9 hPa | 0 mm | 0.89 m/s, 302° | 488 W/m² | - |
| 1777999832 | 7.78° C | 44% | 1011.1 hPa | 0 mm | 3.58 m/s, 327° | 309 W/m² | - |
| 1777999528 | 7.78° C | 43% | 1011.3 hPa | 0 mm | 2.24 m/s, 291° | 297 W/m² | - |
| 1777999226 | 8.33° C | 42% | 1011.2 hPa | 0 mm | 2.24 m/s, 282° | 265 W/m² | - |
| 1777998925 | 7.78° C | 43% | 1011 hPa | 0 mm | 2.24 m/s, 333° | 312 W/m² | - |
| 1777998621 | 7.78° C | 42% | 1011.2 hPa | 0 mm | 4.02 m/s, 269° | 310 W/m² | - |
* Rain latest hour (hover to see other rain measurements)
** Current wind speed in m/s (hover to see current wind gust speed)